owner,sensor,date,latitude,longitude,vertical_datum,mass_concentration_of_oxygen_in_sea_water,qcFlag 
SCCF RECON,ioos:station:SCCF:16:1,2010-05-01T00:00:00Z,26.4345,-81.9647,1.76,6.3,1111122 
SCCF RECON,ioos:station:SCCF:16:1,2010-05-01T01:00:00Z,26.4345,-81.9647,1.739,6.46,1111122 
SCCF RECON,ioos:station:SCCF:16:1,2010-05-01T02:00:00Z,26.4345,-81.9647,1.897,6.57,1111122 
SCCF RECON,ioos:station:SCCF:16:1,2010-05-01T03:00:00Z,26.4345,-81.9647,2.147,6.25,1111122 
SCCF RECON,ioos:station:SCCF:16:1,2010-05-01T04:00:00Z,26.4345,-81.9647,2.357,6.45,1111122 
SCCF RECON,ioos:station:SCCF:16:1,2010-05-01T05:00:00Z,26.4345,-81.9647,2.497,6.28,1111122 
SCCF RECON,ioos:station:SCCF:16:1,2010-05-01T06:00:00Z,26.4345,-81.9647,2.535,6.21,1111122 
SCCF RECON,ioos:station:SCCF:16:1,2010-05-01T07:00:00Z,26.4345,-81.9647,2.559,6.14,1111122 
SCCF RECON,ioos:station:SCCF:16:1,2010-05-01T08:00:00Z,26.4345,-81.9647,2.574,6.03,1111122 
SCCF RECON,ioos:station:SCCF:16:1,2010-05-01T09:00:00Z,26.4345,-81.9647,2.549,5.95,1111122 
SCCF RECON,ioos:station:SCCF:16:1,2010-05-01T10:00:00Z,26.4345,-81.9647,2.51,5.91,1111122 
SCCF RECON,ioos:station:SCCF:16:1,2010-05-01T11:00:00Z,26.4345,-81.9647,2.481,6.04,1111122 
SCCF RECON,ioos:station:SCCF:16:1,2010-05-01T12:00:00Z,26.4345,-81.9647,2.468,5.98,1111122 
SCCF RECON,ioos:station:SCCF:16:1,2010-05-01T13:00:00Z,26.4345,-81.9647,2.503,6.05,1111122 
SCCF RECON,ioos:station:SCCF:16:1,2010-05-01T14:00:00Z,26.4345,-81.9647,2.595,6.02,1111122 
SCCF RECON,ioos:station:SCCF:16:1,2010-05-01T15:00:00Z,26.4345,-81.9647,2.72,6.09,1111122 
SCCF RECON,ioos:station:SCCF:16:1,2010-05-01T16:00:00Z,26.4345,-81.9647,2.834,6.17,1111122 
SCCF RECON,ioos:station:SCCF:16:1,2010-05-01T17:00:00Z,26.4345,-81.9647,2.854,6.06,1111122 
SCCF RECON,ioos:station:SCCF:16:1,2010-05-01T18:00:00Z,26.4345,-81.9647,2.851,6.13,1111122 
SCCF RECON,ioos:station:SCCF:16:1,2010-05-01T19:00:00Z,26.4345,-81.9647,2.85,6.17,1111122 
SCCF RECON,ioos:station:SCCF:16:1,2010-05-01T20:00:00Z,26.4345,-81.9647,2.756,6.15,1111122 
SCCF RECON,ioos:station:SCCF:16:1,2010-05-01T21:00:00Z,26.4345,-81.9647,2.576,6.17,1111122 
SCCF RECON,ioos:station:SCCF:16:1,2010-05-01T22:00:00Z,26.4345,-81.9647,2.358,6.17,1111122 
SCCF RECON,ioos:station:SCCF:16:1,2010-05-01T23:00:00Z,26.4345,-81.9647,2.143,6.1,1111122 
SCCF RECON,ioos:station:SCCF:16:1,2010-05-02T00:00:00Z,26.4345,-81.9647,1.959,6.04,1111122 
SCCF RECON,ioos:station:SCCF:16:1,2010-05-02T01:00:00Z,26.4345,-81.9647,1.84,5.99,1111122 
SCCF RECON,ioos:station:SCCF:16:1,2010-05-02T02:00:00Z,26.4345,-81.9647,1.83,6.27,1111122 
SCCF RECON,ioos:station:SCCF:16:1,2010-05-02T03:00:00Z,26.4345,-81.9647,1.99,6.47,1111122 
SCCF RECON,ioos:station:SCCF:16:1,2010-05-02T04:00:00Z,26.4345,-81.9647,2.218,6.21,1111122 
SCCF RECON,ioos:station:SCCF:16:1,2010-05-02T05:00:00Z,26.4345,-81.9647,2.346,6.34,1111122 
SCCF RECON,ioos:station:SCCF:16:1,2010-05-02T06:00:00Z,26.4345,-81.9647,2.456,6.09,1111122 
SCCF RECON,ioos:station:SCCF:16:1,2010-05-02T07:00:00Z,26.4345,-81.9647,2.527,5.85,1111122 
SCCF RECON,ioos:station:SCCF:16:1,2010-05-02T08:00:00Z,26.4345,-81.9647,2.534,5.82,1111122 
SCCF RECON,ioos:station:SCCF:16:1,2010-05-02T09:00:00Z,26.4345,-81.9647,2.518,5.83,1111122 
SCCF RECON,ioos:station:SCCF:16:1,2010-05-02T10:00:00Z,26.4345,-81.9647,2.538,5.88,1111122 
SCCF RECON,ioos:station:SCCF:16:1,2010-05-02T11:00:00Z,26.4345,-81.9647,2.531,5.81,1111122 
SCCF RECON,ioos:station:SCCF:16:1,2010-05-02T12:00:00Z,26.4345,-81.9647,2.504,5.86,1111122 
SCCF RECON,ioos:station:SCCF:16:1,2010-05-02T13:00:00Z,26.4345,-81.9647,2.465,5.79,1111122 
SCCF RECON,ioos:station:SCCF:16:1,2010-05-02T14:00:00Z,26.4345,-81.9647,2.524,5.74,1111122 
SCCF RECON,ioos:station:SCCF:16:1,2010-05-02T15:00:00Z,26.4345,-81.9647,2.627,5.74,1111122 
SCCF RECON,ioos:station:SCCF:16:1,2010-05-02T16:00:00Z,26.4345,-81.9647,2.72,6.11,1111122 
SCCF RECON,ioos:station:SCCF:16:1,2010-05-02T17:00:00Z,26.4345,-81.9647,2.823,6.1,1111122 
SCCF RECON,ioos:station:SCCF:16:1,2010-05-02T18:00:00Z,26.4345,-81.9647,2.879,6.12,1111122 
SCCF RECON,ioos:station:SCCF:16:1,2010-05-02T19:00:00Z,26.4345,-81.9647,2.864,6.13,1111122 
SCCF RECON,ioos:station:SCCF:16:1,2010-05-02T20:00:00Z,26.4345,-81.9647,2.835,6.2,1111122 
SCCF RECON,ioos:station:SCCF:16:1,2010-05-02T21:00:00Z,26.4345,-81.9647,2.723,6.26,1111122 
SCCF RECON,ioos:station:SCCF:16:1,2010-05-02T22:00:00Z,26.4345,-81.9647,2.544,6.31,1111122 
SCCF RECON,ioos:station:SCCF:16:1,2010-05-02T23:00:00Z,26.4345,-81.9647,2.336,6.21,1111122 
SCCF RECON,ioos:station:SCCF:16:1,2010-05-03T00:00:00Z,26.4345,-81.9647,2.151,6.06,1111122 
SCCF RECON,ioos:station:SCCF:16:1,2010-05-03T01:00:00Z,26.4345,-81.9647,2.01,5.95,1111122 
SCCF RECON,ioos:station:SCCF:16:1,2010-05-03T02:00:00Z,26.4345,-81.9647,1.921,5.83,1111122 
SCCF RECON,ioos:station:SCCF:16:1,2010-05-03T03:00:00Z,26.4345,-81.9647,1.973,5.77,1111122 
SCCF RECON,ioos:station:SCCF:16:1,2010-05-03T04:00:00Z,26.4345,-81.9647,2.115,6.02,1111122 
SCCF RECON,ioos:station:SCCF:16:1,2010-05-03T05:00:00Z,26.4345,-81.9647,2.233,5.79,1111122 
SCCF RECON,ioos:station:SCCF:16:1,2010-05-03T06:00:00Z,26.4345,-81.9647,2.332,5.9,1111122 
SCCF RECON,ioos:station:SCCF:16:1,2010-05-03T07:00:00Z,26.4345,-81.9647,2.412,5.75,1111122 
SCCF RECON,ioos:station:SCCF:16:1,2010-05-03T08:00:00Z,26.4345,-81.9647,2.475,5.66,1111122 
SCCF RECON,ioos:station:SCCF:16:1,2010-05-03T09:00:00Z,26.4345,-81.9647,2.551,5.69,1111122 
SCCF RECON,ioos:station:SCCF:16:1,2010-05-03T10:00:00Z,26.4345,-81.9647,2.553,5.62,1111122 
SCCF RECON,ioos:station:SCCF:16:1,2010-05-03T11:00:00Z,26.4345,-81.9647,2.504,5.71,1111122 
SCCF RECON,ioos:station:SCCF:16:1,2010-05-03T12:00:00Z,26.4345,-81.9647,2.494,5.77,1111122 
SCCF RECON,ioos:station:SCCF:16:1,2010-05-03T13:00:00Z,26.4345,-81.9647,2.481,5.86,1111122 
SCCF RECON,ioos:station:SCCF:16:1,2010-05-03T14:00:00Z,26.4345,-81.9647,2.482,5.91,1111122 
SCCF RECON,ioos:station:SCCF:16:1,2010-05-03T15:00:00Z,26.4345,-81.9647,2.518,5.85,1111122 
SCCF RECON,ioos:station:SCCF:16:1,2010-05-03T16:00:00Z,26.4345,-81.9647,2.577,5.89,1111122 
SCCF RECON,ioos:station:SCCF:16:1,2010-05-03T17:00:00Z,26.4345,-81.9647,2.658,5.84,1111122 
SCCF RECON,ioos:station:SCCF:16:1,2010-05-03T18:00:00Z,26.4345,-81.9647,2.751,6.12,1111122 
SCCF RECON,ioos:station:SCCF:16:1,2010-05-03T19:00:00Z,26.4345,-81.9647,2.767,6.21,1111122 
SCCF RECON,ioos:station:SCCF:16:1,2010-05-03T20:00:00Z,26.4345,-81.9647,2.737,6.16,1111122 
SCCF RECON,ioos:station:SCCF:16:1,2010-05-03T21:00:00Z,26.4345,-81.9647,2.647,6.27,1111122 
SCCF RECON,ioos:station:SCCF:16:1,2010-05-03T22:00:00Z,26.4345,-81.9647,2.545,6.38,1111122 
SCCF RECON,ioos:station:SCCF:16:1,2010-05-03T23:00:00Z,26.4345,-81.9647,2.425,6.26,1111122 
SCCF RECON,ioos:station:SCCF:16:1,2010-05-04T00:00:00Z,26.4345,-81.9647,2.294,6.15,1111122 
SCCF RECON,ioos:station:SCCF:16:1,2010-05-04T01:00:00Z,26.4345,-81.9647,2.149,5.76,1111122 
SCCF RECON,ioos:station:SCCF:16:1,2010-05-04T02:00:00Z,26.4345,-81.9647,2.026,5.79,1111122 
SCCF RECON,ioos:station:SCCF:16:1,2010-05-04T03:00:00Z,26.4345,-81.9647,1.97,5.68,1111122 
SCCF RECON,ioos:station:SCCF:16:1,2010-05-04T04:00:00Z,26.4345,-81.9647,2.006,5.85,1111122 
SCCF RECON,ioos:station:SCCF:16:1,2010-05-04T05:00:00Z,26.4345,-81.9647,2.115,5.87,1111122 
SCCF RECON,ioos:station:SCCF:16:1,2010-05-04T06:00:00Z,26.4345,-81.9647,2.217,5.68,1111122 
SCCF RECON,ioos:station:SCCF:16:1,2010-05-04T07:00:00Z,26.4345,-81.9647,2.314,5.93,1111122 
SCCF RECON,ioos:station:SCCF:16:1,2010-05-04T08:00:00Z,26.4345,-81.9647,2.4,5.69,1111122 
SCCF RECON,ioos:station:SCCF:16:1,2010-05-04T09:00:00Z,26.4345,-81.9647,2.473,5.67,1111122 
SCCF RECON,ioos:station:SCCF:16:1,2010-05-04T10:00:00Z,26.4345,-81.9647,2.473,5.61,1111122 
SCCF RECON,ioos:station:SCCF:16:1,2010-05-04T11:00:00Z,26.4345,-81.9647,2.494,5.66,1111122 
SCCF RECON,ioos:station:SCCF:16:1,2010-05-04T12:00:00Z,26.4345,-81.9647,2.472,5.76,1111122 
SCCF RECON,ioos:station:SCCF:16:1,2010-05-04T13:00:00Z,26.4345,-81.9647,2.439,5.85,1111122 
SCCF RECON,ioos:station:SCCF:16:1,2010-05-04T14:00:00Z,26.4345,-81.9647,2.415,6.02,1111122 
SCCF RECON,ioos:station:SCCF:16:1,2010-05-04T16:00:00Z,26.4345,-81.9647,2.419,6.21,1111122 
SCCF RECON,ioos:station:SCCF:16:1,2010-05-04T17:00:00Z,26.4345,-81.9647,2.496,6.1,1111122 
SCCF RECON,ioos:station:SCCF:16:1,2010-05-04T18:00:00Z,26.4345,-81.9647,2.531,6.04,1111122 
SCCF RECON,ioos:station:SCCF:16:1,2010-05-04T19:00:00Z,26.4345,-81.9647,2.588,5.71,1111122 
SCCF RECON,ioos:station:SCCF:16:1,2010-05-04T20:00:00Z,26.4345,-81.9647,2.585,6.45,1111122 
SCCF RECON,ioos:station:SCCF:16:1,2010-05-04T21:00:00Z,26.4345,-81.9647,2.576,6.61,1111122 
SCCF RECON,ioos:station:SCCF:16:1,2010-05-04T22:00:00Z,26.4345,-81.9647,2.527,6.62,1111122 
SCCF RECON,ioos:station:SCCF:16:1,2010-05-04T23:00:00Z,26.4345,-81.9647,2.464,6.4,1111122 
SCCF RECON,ioos:station:SCCF:16:1,2010-05-05T00:00:00Z,26.4345,-81.9647,2.375,6.47,1111122 
SCCF RECON,ioos:station:SCCF:16:1,2010-05-05T01:00:00Z,26.4345,-81.9647,2.27,6.25,1111122 
SCCF RECON,ioos:station:SCCF:16:1,2010-05-05T02:00:00Z,26.4345,-81.9647,2.141,5.78,1111122 
SCCF RECON,ioos:station:SCCF:16:1,2010-05-05T03:00:00Z,26.4345,-81.9647,2.047,5.95,1111122 
SCCF RECON,ioos:station:SCCF:16:1,2010-05-05T04:00:00Z,26.4345,-81.9647,1.982,6.24,1111122 
SCCF RECON,ioos:station:SCCF:16:1,2010-05-05T05:00:00Z,26.4345,-81.9647,2.0,6.12,1111122 
SCCF RECON,ioos:station:SCCF:16:1,2010-05-05T06:00:00Z,26.4345,-81.9647,2.107,6.22,1111122 
SCCF RECON,ioos:station:SCCF:16:1,2010-05-05T07:00:00Z,26.4345,-81.9647,2.245,6.11,1111122 
SCCF RECON,ioos:station:SCCF:16:1,2010-05-05T08:00:00Z,26.4345,-81.9647,2.32,5.91,1111122 
SCCF RECON,ioos:station:SCCF:16:1,2010-05-05T09:00:00Z,26.4345,-81.9647,2.365,5.91,1111122 
SCCF RECON,ioos:station:SCCF:16:1,2010-05-05T10:00:00Z,26.4345,-81.9647,2.453,5.72,1111122 
SCCF RECON,ioos:station:SCCF:16:1,2010-05-05T11:00:00Z,26.4345,-81.9647,2.533,5.73,1111122 
SCCF RECON,ioos:station:SCCF:16:1,2010-05-05T12:00:00Z,26.4345,-81.9647,2.553,5.75,1111122 
SCCF RECON,ioos:station:SCCF:16:1,2010-05-05T13:00:00Z,26.4345,-81.9647,2.542,5.84,1111122 
SCCF RECON,ioos:station:SCCF:16:1,2010-05-05T14:00:00Z,26.4345,-81.9647,2.477,5.89,1111122 
SCCF RECON,ioos:station:SCCF:16:1,2010-05-05T15:00:00Z,26.4345,-81.9647,2.442,5.88,1111122 
SCCF RECON,ioos:station:SCCF:16:1,2010-05-05T16:00:00Z,26.4345,-81.9647,2.414,6.03,1111122 
SCCF RECON,ioos:station:SCCF:16:1,2010-05-05T17:00:00Z,26.4345,-81.9647,2.406,6.22,1111122 
SCCF RECON,ioos:station:SCCF:16:1,2010-05-05T18:00:00Z,26.4345,-81.9647,2.395,6.54,1111122 
SCCF RECON,ioos:station:SCCF:16:1,2010-05-05T19:00:00Z,26.4345,-81.9647,2.44,6.79,1111122 
SCCF RECON,ioos:station:SCCF:16:1,2010-05-05T20:00:00Z,26.4345,-81.9647,2.494,6.73,1111122 
SCCF RECON,ioos:station:SCCF:16:1,2010-05-05T21:00:00Z,26.4345,-81.9647,2.527,7.09,1111122 
SCCF RECON,ioos:station:SCCF:16:1,2010-05-05T22:00:00Z,26.4345,-81.9647,2.503,7.23,1111122 
SCCF RECON,ioos:station:SCCF:16:1,2010-05-05T23:00:00Z,26.4345,-81.9647,2.475,7.08,1111122 
SCCF RECON,ioos:station:SCCF:16:1,2010-05-06T00:00:00Z,26.4345,-81.9647,2.408,6.89,1111122 
SCCF RECON,ioos:station:SCCF:16:1,2010-05-06T01:00:00Z,26.4345,-81.9647,2.336,7.07,1111122 
SCCF RECON,ioos:station:SCCF:16:1,2010-05-06T02:00:00Z,26.4345,-81.9647,2.234,6.9,1111122 
SCCF RECON,ioos:station:SCCF:16:1,2010-05-06T03:00:00Z,26.4345,-81.9647,2.153,5.6,1111122 
SCCF RECON,ioos:station:SCCF:16:1,2010-05-06T04:00:00Z,26.4345,-81.9647,2.115,6.06,1111122 
SCCF RECON,ioos:station:SCCF:16:1,2010-05-06T05:00:00Z,26.4345,-81.9647,2.059,6.39,1111122 
SCCF RECON,ioos:station:SCCF:16:1,2010-05-06T06:00:00Z,26.4345,-81.9647,2.048,6.56,1111122 
SCCF RECON,ioos:station:SCCF:16:1,2010-05-06T07:00:00Z,26.4345,-81.9647,2.124,5.86,1111122 
SCCF RECON,ioos:station:SCCF:16:1,2010-05-06T08:00:00Z,26.4345,-81.9647,2.224,5.26,1111122 
SCCF RECON,ioos:station:SCCF:16:1,2010-05-06T09:00:00Z,26.4345,-81.9647,2.319,5.82,1111122 
SCCF RECON,ioos:station:SCCF:16:1,2010-05-06T10:00:00Z,26.4345,-81.9647,2.407,5.41,1111122 
SCCF RECON,ioos:station:SCCF:16:1,2010-05-06T11:00:00Z,26.4345,-81.9647,2.483,5.5,1111122 
SCCF RECON,ioos:station:SCCF:16:1,2010-05-06T12:00:00Z,26.4345,-81.9647,2.526,5.45,1111122 
SCCF RECON,ioos:station:SCCF:16:1,2010-05-06T13:00:00Z,26.4345,-81.9647,2.544,5.27,1111122 
SCCF RECON,ioos:station:SCCF:16:1,2010-05-06T14:00:00Z,26.4345,-81.9647,2.488,5.27,1111122 
SCCF RECON,ioos:station:SCCF:16:1,2010-05-06T15:00:00Z,26.4345,-81.9647,2.439,5.25,1111122 
SCCF RECON,ioos:station:SCCF:16:1,2010-05-06T16:00:00Z,26.4345,-81.9647,2.416,5.44,1111122 
SCCF RECON,ioos:station:SCCF:16:1,2010-05-06T17:00:00Z,26.4345,-81.9647,2.364,5.81,1111122 
SCCF RECON,ioos:station:SCCF:16:1,2010-05-06T18:00:00Z,26.4345,-81.9647,2.326,5.93,1111122 
SCCF RECON,ioos:station:SCCF:16:1,2010-05-06T19:00:00Z,26.4345,-81.9647,2.339,5.84,1111122 
SCCF RECON,ioos:station:SCCF:16:1,2010-05-06T20:00:00Z,26.4345,-81.9647,2.374,6.17,1111122 
SCCF RECON,ioos:station:SCCF:16:1,2010-05-06T21:00:00Z,26.4345,-81.9647,2.447,6.2,1111122 
SCCF RECON,ioos:station:SCCF:16:1,2010-05-06T22:00:00Z,26.4345,-81.9647,2.503,6.65,1111122 
SCCF RECON,ioos:station:SCCF:16:1,2010-05-06T23:00:00Z,26.4345,-81.9647,2.504,6.53,1111122 
SCCF RECON,ioos:station:SCCF:16:1,2010-05-07T00:00:00Z,26.4345,-81.9647,2.504,6.53,1111122 
SCCF RECON,ioos:station:SCCF:16:1,2010-05-07T01:00:00Z,26.4345,-81.9647,2.489,6.93,1111122 
SCCF RECON,ioos:station:SCCF:16:1,2010-05-07T02:00:00Z,26.4345,-81.9647,2.421,6.49,1111122 
SCCF RECON,ioos:station:SCCF:16:1,2010-05-07T03:00:00Z,26.4345,-81.9647,2.329,6.68,1111122 
SCCF RECON,ioos:station:SCCF:16:1,2010-05-07T04:00:00Z,26.4345,-81.9647,2.267,6.56,1111122 
SCCF RECON,ioos:station:SCCF:16:1,2010-05-07T05:00:00Z,26.4345,-81.9647,2.204,6.65,1111122 
SCCF RECON,ioos:station:SCCF:16:1,2010-05-07T06:00:00Z,26.4345,-81.9647,2.138,6.7,1111122 
SCCF RECON,ioos:station:SCCF:16:1,2010-05-07T07:00:00Z,26.4345,-81.9647,2.117,6.42,1111122 
SCCF RECON,ioos:station:SCCF:16:1,2010-05-07T08:00:00Z,26.4345,-81.9647,2.167,5.69,1111122 
SCCF RECON,ioos:station:SCCF:16:1,2010-05-07T09:00:00Z,26.4345,-81.9647,2.286,4.66,1111122 
SCCF RECON,ioos:station:SCCF:16:1,2010-05-07T10:00:00Z,26.4345,-81.9647,2.406,5.96,1111122 
SCCF RECON,ioos:station:SCCF:16:1,2010-05-07T11:00:00Z,26.4345,-81.9647,2.479,5.05,1111122 
SCCF RECON,ioos:station:SCCF:16:1,2010-05-07T12:00:00Z,26.4345,-81.9647,2.566,5.12,1111122 
SCCF RECON,ioos:station:SCCF:16:1,2010-05-07T13:00:00Z,26.4345,-81.9647,2.6,5.1,1111122 
SCCF RECON,ioos:station:SCCF:16:1,2010-05-07T14:00:00Z,26.4345,-81.9647,2.571,5.13,1111122 
SCCF RECON,ioos:station:SCCF:16:1,2010-05-07T15:00:00Z,26.4345,-81.9647,2.51,4.88,1111122 
SCCF RECON,ioos:station:SCCF:16:1,2010-05-07T16:00:00Z,26.4345,-81.9647,2.459,5.3,1111122 
SCCF RECON,ioos:station:SCCF:16:1,2010-05-07T17:00:00Z,26.4345,-81.9647,2.383,5.64,1111122 
SCCF RECON,ioos:station:SCCF:16:1,2010-05-07T18:00:00Z,26.4345,-81.9647,2.327,5.44,1111122 
SCCF RECON,ioos:station:SCCF:16:1,2010-05-07T19:00:00Z,26.4345,-81.9647,2.275,5.95,1111122 
SCCF RECON,ioos:station:SCCF:16:1,2010-05-07T20:00:00Z,26.4345,-81.9647,2.262,6.2,1111122 
SCCF RECON,ioos:station:SCCF:16:1,2010-05-07T21:00:00Z,26.4345,-81.9647,2.317,6.05,1111122 
SCCF RECON,ioos:station:SCCF:16:1,2010-05-07T22:00:00Z,26.4345,-81.9647,2.415,6.63,1111122 
SCCF RECON,ioos:station:SCCF:16:1,2010-05-07T23:00:00Z,26.4345,-81.9647,2.489,6.73,1111122 
SCCF RECON,ioos:station:SCCF:16:1,2010-05-08T00:00:00Z,26.4345,-81.9647,2.525,6.5,1111122 
SCCF RECON,ioos:station:SCCF:16:1,2010-05-08T01:00:00Z,26.4345,-81.9647,2.547,7.25,1111122 
SCCF RECON,ioos:station:SCCF:16:1,2010-05-08T02:00:00Z,26.4345,-81.9647,2.514,7.05,1111122 
SCCF RECON,ioos:station:SCCF:16:1,2010-05-08T03:00:00Z,26.4345,-81.9647,2.461,6.8,1111122 
SCCF RECON,ioos:station:SCCF:16:1,2010-05-08T04:00:00Z,26.4345,-81.9647,2.369,6.75,1111122 
SCCF RECON,ioos:station:SCCF:16:1,2010-05-08T05:00:00Z,26.4345,-81.9647,2.296,6.42,1111122 
SCCF RECON,ioos:station:SCCF:16:1,2010-05-08T06:00:00Z,26.4345,-81.9647,2.229,5.97,1111122 
SCCF RECON,ioos:station:SCCF:16:1,2010-05-08T07:00:00Z,26.4345,-81.9647,2.143,5.98,1111122 
SCCF RECON,ioos:station:SCCF:16:1,2010-05-08T08:00:00Z,26.4345,-81.9647,2.154,5.99,1111122 
SCCF RECON,ioos:station:SCCF:16:1,2010-05-08T09:00:00Z,26.4345,-81.9647,2.23,5.58,1111122 
SCCF RECON,ioos:station:SCCF:16:1,2010-05-08T10:00:00Z,26.4345,-81.9647,2.365,4.64,1111122 
SCCF RECON,ioos:station:SCCF:16:1,2010-05-08T11:00:00Z,26.4345,-81.9647,2.449,5.0,1111122 
SCCF RECON,ioos:station:SCCF:16:1,2010-05-08T12:00:00Z,26.4345,-81.9647,2.516,5.05,1111122 
SCCF RECON,ioos:station:SCCF:16:1,2010-05-08T13:00:00Z,26.4345,-81.9647,2.582,5.08,1111122 
SCCF RECON,ioos:station:SCCF:16:1,2010-05-08T14:00:00Z,26.4345,-81.9647,2.601,5.26,1111122 
SCCF RECON,ioos:station:SCCF:16:1,2010-05-08T15:00:00Z,26.4345,-81.9647,2.573,5.25,1111122 
SCCF RECON,ioos:station:SCCF:16:1,2010-05-08T16:00:00Z,26.4345,-81.9647,2.489,5.13,1111122 
SCCF RECON,ioos:station:SCCF:16:1,2010-05-08T17:00:00Z,26.4345,-81.9647,2.387,5.05,1111122 
SCCF RECON,ioos:station:SCCF:16:1,2010-05-08T18:00:00Z,26.4345,-81.9647,2.269,5.5,1111122 
SCCF RECON,ioos:station:SCCF:16:1,2010-05-08T19:00:00Z,26.4345,-81.9647,2.186,5.12,1111122 
SCCF RECON,ioos:station:SCCF:16:1,2010-05-08T20:00:00Z,26.4345,-81.9647,2.127,6.16,1111122 
SCCF RECON,ioos:station:SCCF:16:1,2010-05-08T21:00:00Z,26.4345,-81.9647,2.142,5.89,1111122 
SCCF RECON,ioos:station:SCCF:16:1,2010-05-08T22:00:00Z,26.4345,-81.9647,2.213,5.68,1111122 
SCCF RECON,ioos:station:SCCF:16:1,2010-05-08T23:00:00Z,26.4345,-81.9647,2.31,6.49,1111122 
SCCF RECON,ioos:station:SCCF:16:1,2010-05-09T00:00:00Z,26.4345,-81.9647,2.401,7.0,1111122 
SCCF RECON,ioos:station:SCCF:16:1,2010-05-09T01:00:00Z,26.4345,-81.9647,2.462,6.41,1111122 
SCCF RECON,ioos:station:SCCF:16:1,2010-05-09T02:00:00Z,26.4345,-81.9647,2.5,6.13,1111122 
SCCF RECON,ioos:station:SCCF:16:1,2010-05-09T03:00:00Z,26.4345,-81.9647,2.535,6.05,1111122 
SCCF RECON,ioos:station:SCCF:16:1,2010-05-09T04:00:00Z,26.4345,-81.9647,2.475,5.96,1111122 
SCCF RECON,ioos:station:SCCF:16:1,2010-05-09T05:00:00Z,26.4345,-81.9647,2.368,5.63,1111122 
SCCF RECON,ioos:station:SCCF:16:1,2010-05-09T06:00:00Z,26.4345,-81.9647,2.267,5.81,1111122 
SCCF RECON,ioos:station:SCCF:16:1,2010-05-09T07:00:00Z,26.4345,-81.9647,2.2,5.83,1111122 
SCCF RECON,ioos:station:SCCF:16:1,2010-05-09T08:00:00Z,26.4345,-81.9647,2.19,5.75,1111122 
SCCF RECON,ioos:station:SCCF:16:1,2010-05-09T09:00:00Z,26.4345,-81.9647,2.233,5.56,1111122 
SCCF RECON,ioos:station:SCCF:16:1,2010-05-09T10:00:00Z,26.4345,-81.9647,2.319,5.61,1111122 
SCCF RECON,ioos:station:SCCF:16:1,2010-05-09T11:00:00Z,26.4345,-81.9647,2.454,5.51,1111122 
SCCF RECON,ioos:station:SCCF:16:1,2010-05-09T12:00:00Z,26.4345,-81.9647,2.537,5.48,1111122 
SCCF RECON,ioos:station:SCCF:16:1,2010-05-09T13:00:00Z,26.4345,-81.9647,2.609,5.29,1111122 
SCCF RECON,ioos:station:SCCF:16:1,2010-05-09T14:00:00Z,26.4345,-81.9647,2.647,5.44,1111122 
SCCF RECON,ioos:station:SCCF:16:1,2010-05-09T15:00:00Z,26.4345,-81.9647,2.627,5.54,1111122 
SCCF RECON,ioos:station:SCCF:16:1,2010-05-09T16:00:00Z,26.4345,-81.9647,2.605,5.61,1111122 
SCCF RECON,ioos:station:SCCF:16:1,2010-05-09T17:00:00Z,26.4345,-81.9647,2.498,5.58,1111122 
SCCF RECON,ioos:station:SCCF:16:1,2010-05-09T18:00:00Z,26.4345,-81.9647,2.375,5.66,1111122 
SCCF RECON,ioos:station:SCCF:16:1,2010-05-09T19:00:00Z,26.4345,-81.9647,2.22,5.6,1111122 
SCCF RECON,ioos:station:SCCF:16:1,2010-05-09T20:00:00Z,26.4345,-81.9647,2.1,6.04,1111122 
SCCF RECON,ioos:station:SCCF:16:1,2010-05-09T21:00:00Z,26.4345,-81.9647,2.08,6.26,1111122 
SCCF RECON,ioos:station:SCCF:16:1,2010-05-09T22:00:00Z,26.4345,-81.9647,2.179,5.94,1111122 
SCCF RECON,ioos:station:SCCF:16:1,2010-05-09T23:00:00Z,26.4345,-81.9647,2.283,6.22,1111122 
SCCF RECON,ioos:station:SCCF:16:1,2010-05-10T00:00:00Z,26.4345,-81.9647,2.41,6.73,1111122 
SCCF RECON,ioos:station:SCCF:16:1,2010-05-10T01:00:00Z,26.4345,-81.9647,2.478,6.83,1111122 
SCCF RECON,ioos:station:SCCF:16:1,2010-05-10T02:00:00Z,26.4345,-81.9647,2.526,6.67,1111122 
SCCF RECON,ioos:station:SCCF:16:1,2010-05-10T03:00:00Z,26.4345,-81.9647,2.578,6.33,1111122 
SCCF RECON,ioos:station:SCCF:16:1,2010-05-10T04:00:00Z,26.4345,-81.9647,2.583,6.08,1111122 
SCCF RECON,ioos:station:SCCF:16:1,2010-05-10T05:00:00Z,26.4345,-81.9647,2.507,6.0,1111122 
SCCF RECON,ioos:station:SCCF:16:1,2010-05-10T06:00:00Z,26.4345,-81.9647,2.393,5.88,1111122 
SCCF RECON,ioos:station:SCCF:16:1,2010-05-10T07:00:00Z,26.4345,-81.9647,2.299,5.99,1111122 
SCCF RECON,ioos:station:SCCF:16:1,2010-05-10T08:00:00Z,26.4345,-81.9647,2.203,6.1,1111122 
SCCF RECON,ioos:station:SCCF:16:1,2010-05-10T09:00:00Z,26.4345,-81.9647,2.182,5.88,1111122 
SCCF RECON,ioos:station:SCCF:16:1,2010-05-10T10:00:00Z,26.4345,-81.9647,2.221,5.48,1111122 
SCCF RECON,ioos:station:SCCF:16:1,2010-05-10T11:00:00Z,26.4345,-81.9647,2.326,5.74,1111122 
SCCF RECON,ioos:station:SCCF:16:1,2010-05-10T12:00:00Z,26.4345,-81.9647,2.475,5.79,1111122 
SCCF RECON,ioos:station:SCCF:16:1,2010-05-10T13:00:00Z,26.4345,-81.9647,2.585,5.78,1111122 
SCCF RECON,ioos:station:SCCF:16:1,2010-05-10T14:00:00Z,26.4345,-81.9647,2.658,5.91,1111122 
SCCF RECON,ioos:station:SCCF:16:1,2010-05-10T15:00:00Z,26.4345,-81.9647,2.691,6.0,1111122 
SCCF RECON,ioos:station:SCCF:16:1,2010-05-10T16:00:00Z,26.4345,-81.9647,2.628,6.07,1111122 
SCCF RECON,ioos:station:SCCF:16:1,2010-05-10T17:00:00Z,26.4345,-81.9647,2.525,5.98,1111122 
SCCF RECON,ioos:station:SCCF:16:1,2010-05-10T18:00:00Z,26.4345,-81.9647,2.381,6.14,1111122 
SCCF RECON,ioos:station:SCCF:16:1,2010-05-10T19:00:00Z,26.4345,-81.9647,2.262,6.08,1111122 
SCCF RECON,ioos:station:SCCF:16:1,2010-05-10T20:00:00Z,26.4345,-81.9647,2.137,6.13,1111122 
SCCF RECON,ioos:station:SCCF:16:1,2010-05-10T21:00:00Z,26.4345,-81.9647,2.075,6.22,1111122 
SCCF RECON,ioos:station:SCCF:16:1,2010-05-10T22:00:00Z,26.4345,-81.9647,2.07,6.29,1111122 
SCCF RECON,ioos:station:SCCF:16:1,2010-05-10T23:00:00Z,26.4345,-81.9647,2.188,6.3,1111122 
SCCF RECON,ioos:station:SCCF:16:1,2010-05-11T00:00:00Z,26.4345,-81.9647,2.323,6.43,1111122 
SCCF RECON,ioos:station:SCCF:16:1,2010-05-11T01:00:00Z,26.4345,-81.9647,2.438,6.38,1111122 
SCCF RECON,ioos:station:SCCF:16:1,2010-05-11T02:00:00Z,26.4345,-81.9647,2.53,6.26,1111122 
SCCF RECON,ioos:station:SCCF:16:1,2010-05-11T03:00:00Z,26.4345,-81.9647,2.627,6.08,1111122 
SCCF RECON,ioos:station:SCCF:16:1,2010-05-11T04:00:00Z,26.4345,-81.9647,2.648,5.99,1111122 
SCCF RECON,ioos:station:SCCF:16:1,2010-05-11T05:00:00Z,26.4345,-81.9647,2.593,5.93,1111122 
SCCF RECON,ioos:station:SCCF:16:1,2010-05-11T06:00:00Z,26.4345,-81.9647,2.515,5.9,1111122 
SCCF RECON,ioos:station:SCCF:16:1,2010-05-11T07:00:00Z,26.4345,-81.9647,2.398,5.79,1111122 
SCCF RECON,ioos:station:SCCF:16:1,2010-05-11T08:00:00Z,26.4345,-81.9647,2.312,5.73,1111122 
SCCF RECON,ioos:station:SCCF:16:1,2010-05-11T09:00:00Z,26.4345,-81.9647,2.264,5.63,1111122 
SCCF RECON,ioos:station:SCCF:16:1,2010-05-11T10:00:00Z,26.4345,-81.9647,2.298,5.51,1111122 
SCCF RECON,ioos:station:SCCF:16:1,2010-05-11T11:00:00Z,26.4345,-81.9647,2.433,5.5,1111122 
SCCF RECON,ioos:station:SCCF:16:1,2010-05-11T12:00:00Z,26.4345,-81.9647,2.641,5.67,1111122 
SCCF RECON,ioos:station:SCCF:16:1,2010-05-11T13:00:00Z,26.4345,-81.9647,2.766,5.78,1111122 
SCCF RECON,ioos:station:SCCF:16:1,2010-05-11T14:00:00Z,26.4345,-81.9647,2.78,5.88,1111122 
SCCF RECON,ioos:station:SCCF:16:1,2010-05-11T15:00:00Z,26.4345,-81.9647,2.811,5.94,1111122 
SCCF RECON,ioos:station:SCCF:16:1,2010-05-11T16:00:00Z,26.4345,-81.9647,2.776,6.05,1111122 
SCCF RECON,ioos:station:SCCF:16:1,2010-05-11T17:00:00Z,26.4345,-81.9647,2.667,6.04,1111122 
SCCF RECON,ioos:station:SCCF:16:1,2010-05-11T18:00:00Z,26.4345,-81.9647,2.517,6.15,1111122 
SCCF RECON,ioos:station:SCCF:16:1,2010-05-11T19:00:00Z,26.4345,-81.9647,2.35,6.04,1111122 
SCCF RECON,ioos:station:SCCF:16:1,2010-05-11T20:00:00Z,26.4345,-81.9647,2.177,5.97,1111122 